SCP
0 0 -0 -0 -0 -0 -0 -0 -0 -0 -0 -0 -0 -0 -0 -0 -0 -0 -0 0 -0 0 0 0 0 -0 -0 0 0 0 0 -0 -0 0 0 0 0 0 -0 0 -0 -0 -0 -0 0
-0 -0 -0 0 0 0 0 0 0 -0 -0 -0 -0 0 0 0 -0 -0 0 0 0 0 0 0 0 0 0 0 0 0 0 -0 -0 0 0 -0 -0 0 0 0 -0 -0 -0 -0 -0
-0 -0 -0 -0 -0 0 0 0 0 0 0 0 -0 0 0 0 -0 0 0 0 0 0 0 0 0 0 0 0 0 0 0 0 0 0 -0 -0 -0 0 -0 -0 0 -0 -0 -0 -0
-0 -0 -0 -0 -0 -0 -0 0 0 0 0 0 0 0 0 -0 0 0 0 0 0 0 0 0 0 0 -0 0 -0 -0 -0 -0 0 0 0 -0 0 0 0 0 -0 -0 -0 -0 -0
-0 -0 -0 -0 -0 -0 -0 -0 0 0 0 0 0 0 0 0 0 -0 -0 -0 0 0 0 0 0 0 -0 0 0 0 0 -0 -0 -0 -0 -0 -0 0 0 0 -0 -0 -0 -0 -0
-0 -0 -0 -0 -0 -0 -0 -0 -0 -0 0 0 0 0 0 0 0 0 0 -0 0 0 0 0 0 0 0 -0 0 0 0 0 0 -0 -0 -0 0 0 0 -0 -0 -0 -0 -0 -0
0 0 -0 -0 -0 -0 -0 -0 -0 -0 -0 0 0 0 0 0 0 0 0 0 0 0 0 0 0 0 0 0 0 0 0 0 0 0 -0 -0 0 0 -0 -0 -0 -0 -0 -0 -0
0 0 0 0 -0 -0 -0 -0 -0 -0 -0 0 0 0 0 0 0 -0 0 0 0 0 0 0 0 0 0 0 0 0 0 0 0 0 0 0 0 0 -0 -0 -0 -0 -0 -0 -0
0 0 0 0 -0 -0 -0 -0 -0 0 0 -0 0 0 0 0 0 0 0 0 0 0 0 0 0 0 0 0 0 0 0 0 0 0 0 0 0 0 -0 -0 -0 -0 -0 -0 0
0 0 0 0 0 0 -0 0 0 0 0 0 0 0 0 0 0 0 0 0 0 0 0 0 0 0 0 0 0 0 0 0 0 0 0 0 0 -0 -0 -0 -0 -0 -0 -0 -0
0 0 0 0 0 0 0 0 0 0 0 0 0 0 0 0 0 0 0 0 0 0 0 0 0 -0 -0 -0 0 0 0 0 0 -0 -0 0 0 -0 -0 -0 -0 -0 -0 -0 -0
0 0 0 0 0 0 0 0 0 0 -0 0 -0 -0 -0 -0 0 0 0 0 0 0 0 0 -0 -0 0 0 0 0 0 0 0 0 -0 0 0 0 -0 -0 -0 -0 -0 -0 -0
0 0 0 0 0 0 0 0 0 0 -0 -0 0 0 0 0 0 0 0 0 0 0 0 0 0 0 0 0 0 0 0 0 0 0 0 0 0 0 0 -0 -0 -0 -0 -0 -0
0 0 0 0 0 0 0 0 0 0 -0 -0 0 0 0 0 0 0 0 0 0 0 0 0 0 0 0 0 0 0 0 0 0 0 0 0 0 0 0 -0 -0 -0 -0 -0 -0
0 0 0 -0 0 0 0 0 0 0 0 0 0 0 0 0 0 0 0 0 0 0 0 0 0 0 0 0 0 0 -0 0 0 0 0 0 0 0 0 0 -0 -0 -0 -0 -0
0 0 0 -0 -0 0 0 0 0 0 0 0 0 0 0 0 0 0 0 0 0 0 0 0 0 0 0 0 0 0 0 0 0 0 0 0 0 0 0 -0 -0 -0 -0 -0 -0
0 0 -0 -0 -0 0 0 0 0 0 0 0 0 0 0 0 0 0 0 0 0 0 0 0 0 0 0 0 0 0 0 0 -0 -0 -0 0 0 0 -0 0 -0 -0 -0 -0 -0
0 0 -0 -0 0 0 0 0 0 0 0 0 0 0 0 0 0 0 0 0 0 0 0 0 0 0 0 0 0 0 0 0 0 0 -0 0 0 -0 -0 0 -0 -0 -0 -0 -0
0 0 0 0 0 0 0 0 0 0 0 0 0 0 0 0 0 0 0 0 0 0 0 0 0 0 0 0 0 0 0 0 0 0 -0 0 0 0 -0 0 0 -0 -0 -0 -0
0 0 0 0 0 0 0 0 0 0 0 0 0 0 0 0 0 0 0 0 0 0 0 0 0 0 0 0 0 0 0 0 0 -0 -0 -0 -0 -0 0 -0 0 -0 -0 -0 -0
0 0 0 0 0 0 0 0 0 0 0 0 0 0 0 0 0 0 0 0 0 0 0 0 0 0 0 0 0 0 0 0 0 0 0 -0 -0 -0 -0 -0 0 -0 -0 -0 -0
0 0 0 0 0 0 0 0 0 0 0 -0 0 0 0 0 0 0 0 0 0 0 0 0 0 0 0 0 0 0 0 0 0 0 0 0 -0 -0 0 -0 0 -0 -0 -0 -0
0 0 0 0 0 0 0 0 0 0 0 -0 -0 0 0 0 0 0 0 0 0 0 0 0 0 0 0 0 0 0 0 0 0 0 0 0 -0 -0 -0 -0 0 0 0 0 0
0 0 0 0 0 0 0 0 0 0 0 0 0 -0 -0 0 0 0 0 0 0 0 0 0 0 0 0 0 0 0 0 0 0 0 0 0 -0 0 0 0 0 0 0 0 0
0 0 0 0 0 0 0 0 0 0 0 0 0 0 -0 0 0 0 0 0 0 0 0 0 0 0 0 0 0 0 0 0 0 0 0 0 0 0 0 0 0 0 0 0 0
0 0 0 0 0 0 0 0 0 0 0 0 0 0 0 -0 0 0 0 0 0 0 0 0 0 0 0 0 0 0 0 0 0 0 0 0 0 0 0 0 0 0 0 0 0
0 0 0 -0 0 0 0 0 0 0 0 0 0 0 0 0 0 0 0 0 0 0 0 0 0 0 0 0 0 0 0 0 0 0 0 0 0 0 0 0 0 0 0 0 0
Wind_Speed_500mb
37 38 37 37 39 40 41 42 42 41 40 38 37 37 39 43 41 45 54 42 35 19 15 24 22 18 18 14 20 6 4 6 6 15 14 33 12 28 4 35 12 7 33 73 70
36 37 38 39 40 40 40 41 42 45 43 41 38 38 39 44 48 51 36 32 33 35 29 26 20 18 13 12 14 12 6 11 11 14 26 35 39 36 18 29 8 24 51 74 69
40 41 41 41 42 42 42 41 41 43 44 43 40 36 37 38 46 20 6 6 18 35 30 15 15 11 16 16 17 15 12 14 17 35 54 45 31 18 45 8 26 66 83 80 73
40 41 43 45 46 45 45 45 42 42 42 42 40 36 33 27 13 10 11 11 13 25 41 29 18 13 8 7 10 10 25 23 38 40 39 36 39 19 24 18 56 76 93 85 74
43 43 43 44 46 48 49 48 46 43 42 41 39 36 31 23 59 25 31 39 23 16 30 34 25 13 6 7 12 8 15 21 64 61 56 45 25 14 22 22 50 77 84 83 75
47 46 46 47 48 49 50 50 48 45 42 43 38 35 30 21 41 26 32 43 36 22 24 32 12 13 9 8 4 12 20 17 48 47 53 31 18 17 21 46 64 74 68 78 78
52 52 52 52 53 52 52 51 49 47 43 39 37 35 42 72 27 7 9 11 25 25 25 20 22 14 1 8 16 13 8 9 6 20 11 51 5 8 47 59 68 61 60 64 71
59 57 56 57 56 56 54 52 47 46 39 37 35 33 34 46 36 58 60 54 33 29 30 21 19 17 10 14 17 10 9 9 7 12 27 11 10 20 57 65 58 60 59 61 70
61 62 62 60 59 58 56 44 40 32 23 23 22 21 29 24 41 42 58 51 38 31 29 23 10 14 16 10 10 11 9 7 8 18 18 4 6 40 55 56 58 60 62 63 73
65 65 64 64 62 58 51 41 15 13 4 5 16 9 31 14 7 15 25 51 42 33 37 24 18 8 7 8 11 9 8 9 14 18 10 8 10 35 58 56 59 61 62 64 70
70 68 68 64 60 56 39 17 15 6 20 21 13 22 19 10 23 8 17 53 46 17 13 14 10 15 23 17 12 11 5 8 10 16 12 14 16 41 60 52 51 56 60 66 69
67 71 71 67 60 42 21 13 25 25 34 44 56 69 77 63 22 15 23 34 20 14 10 2 17 18 15 17 9 5 4 7 6 9 7 10 6 31 49 63 69 66 64 70 75
67 69 70 70 57 19 34 11 34 36 14 33 58 50 66 53 34 47 29 37 13 17 14 16 10 18 13 11 13 7 10 7 9 7 8 13 5 18 33 37 54 62 75 73 84
65 68 68 70 37 42 17 30 29 26 8 15 13 20 37 37 20 81 44 40 7 30 15 14 23 17 15 13 12 10 16 7 5 7 8 14 11 15 30 37 33 59 67 70 87
71 70 65 59 66 49 37 24 19 7 10 7 11 4 29 45 26 49 71 37 20 13 16 16 17 23 11 20 15 18 10 16 10 10 3 4 1 14 28 31 43 56 71 76 84
68 69 67 67 68 37 40 29 7 6 17 11 11 7 12 26 7 21 43 43 29 13 7 20 8 19 21 8 20 8 5 14 9 9 4 24 18 12 15 49 48 50 69 76 85
66 66 70 51 47 34 26 17 6 10 14 8 10 12 9 11 11 14 32 27 21 15 27 4 22 6 10 11 7 12 14 2 4 2 12 11 5 21 18 25 46 46 77 84 88
68 63 54 50 53 26 7 6 10 9 15 12 15 17 15 13 14 5 28 26 9 13 11 15 11 22 12 18 17 15 19 12 11 8 8 12 14 32 36 30 48 61 79 79 76
74 62 22 47 46 21 9 5 13 5 11 22 20 12 12 12 7 7 16 40 42 20 16 16 14 5 15 11 26 11 11 18 10 4 5 8 14 19 16 23 28 55 51 68 82
78 66 10 47 38 8 7 9 8 4 17 12 10 11 9 15 11 3 16 14 30 20 14 14 8 11 9 11 10 18 17 8 4 14 10 9 9 13 18 18 18 22 49 67 86
61 29 25 47 4 9 6 12 12 6 29 14 8 10 9 8 11 10 8 7 20 31 18 14 9 6 15 15 20 8 7 8 11 10 13 6 15 16 18 20 21 30 58 68 84
36 8 38 43 8 5 3 15 23 31 26 14 11 16 14 11 8 6 8 9 25 10 34 17 13 13 14 7 16 16 20 16 11 9 3 10 23 12 17 19 22 34 55 78 86
41 17 24 26 8 9 16 12 9 17 9 9 10 18 20 11 9 11 9 6 38 20 19 19 8 7 9 12 3 10 11 11 10 8 16 14 17 7 12 9 13 31 47 56 77
17 7 15 13 6 8 13 10 15 29 10 21 11 18 15 15 15 13 15 10 32 17 22 5 12 43 23 9 12 11 12 13 16 9 11 15 12 9 13 10 10 24 49 66 74
6 5 6 8 9 11 10 10 18 15 12 24 14 22 15 8 3 6 7 12 11 25 15 5 29 18 30 16 12 14 12 19 17 16 18 21 19 19 19 19 28 34 28 66 76
7 8 13 22 23 10 4 2 14 15 8 10 17 35 11 8 9 10 8 3 8 15 14 14 5 13 23 30 17 15 16 19 15 8 10 12 18 19 44 44 32 42 38 58 73
11 15 7 15 10 4 3 10 12 35 18 21 16 10 12 12 28 44 41 32 18 4 6 9 5 9 39 10 11 13 36 15 10 9 17 16 30 15 15 19 28 16 25 37 61
Wind_Direction_500mb
338 335 328 319 314 307 305 305 304 302 300 302 303 302 302 300 296 290 280 289 284 267 211 216 196 193 199 227 234 244 10 260 262 152 139 150 130 156 167 143 144 127 156 159 157
338 333 330 325 321 317 311 306 301 297 296 296 297 299 300 303 303 290 296 273 251 236 227 206 195 186 197 218 204 177 186 243 229 150 152 165 152 156 130 158 100 115 148 155 159
339 335 332 327 323 319 314 310 306 302 295 291 291 294 297 304 311 287 135 19 243 224 207 194 180 211 223 215 204 199 213 213 164 166 155 153 147 146 145 196 182 150 153 162 165
341 336 333 329 325 320 315 311 307 303 299 290 287 287 289 292 273 181 186 45 47 200 193 203 208 198 213 230 235 268 239 216 173 166 150 160 151 141 174 210 188 172 162 164 171
342 337 333 329 324 320 315 310 306 301 296 290 285 281 279 260 249 246 271 276 286 236 205 203 196 190 206 237 302 229 266 175 156 159 169 155 158 144 225 165 166 159 164 169 172
341 336 332 328 324 320 314 309 304 300 292 287 280 273 262 244 277 279 246 244 251 231 224 216 174 216 255 250 262 289 331 146 157 162 164 144 144 129 150 155 155 160 168 173 177
339 335 332 330 326 322 315 309 306 297 287 280 273 264 250 246 254 226 209 224 228 233 239 252 238 206 306 303 319 324 66 72 12 142 128 118 94 169 158 157 161 171 177 182 188
338 334 332 330 329 324 316 316 308 294 281 271 265 257 253 267 253 248 248 261 255 231 236 252 260 216 194 306 330 40 49 128 212 151 161 130 189 155 163 158 170 177 187 194 197
338 335 332 330 330 325 322 323 313 307 284 256 246 235 268 250 243 245 235 233 225 219 232 242 223 187 148 118 1 22 156 186 177 225 155 75 140 167 171 171 175 186 192 196 205
339 336 334 331 332 328 330 330 328 354 24 227 208 259 244 243 234 283 230 219 213 217 235 242 212 137 95 112 186 194 213 208 180 199 187 161 168 168 178 180 186 191 196 201 207
339 336 334 332 334 333 340 357 346 297 297 240 232 244 270 295 238 237 244 188 202 202 160 199 156 194 186 171 163 146 130 222 210 203 143 191 154 178 184 189 193 201 200 205 208
340 337 335 330 333 333 357 34 18 331 295 282 269 257 253 258 299 249 196 163 167 184 157 64 212 213 117 151 162 181 167 258 288 148 120 165 218 186 186 198 195 198 203 206 212
342 338 335 328 332 338 338 19 339 332 252 283 254 246 241 232 223 246 189 188 149 171 177 199 237 149 160 156 162 204 180 207 155 84 63 113 10 185 210 213 212 213 208 209 212
341 338 339 329 331 329 341 318 324 323 299 269 227 244 196 192 233 230 214 194 167 196 142 214 236 189 145 187 141 190 208 144 168 111 212 169 241 221 200 215 213 214 212 210 218
339 338 336 332 314 322 316 318 310 310 313 199 188 296 177 170 143 203 204 192 180 161 139 224 198 190 169 203 157 222 139 179 161 202 113 283 58 264 188 215 219 215 214 213 218
337 336 333 326 315 325 313 312 303 48 244 308 133 143 125 228 261 127 172 203 204 165 133 210 209 164 209 153 184 88 83 49 66 116 175 232 193 250 183 215 222 219 216 216 215
336 335 342 343 341 309 305 310 71 198 323 341 358 29 278 204 244 160 168 175 173 150 201 171 231 218 153 168 203 110 87 307 341 108 214 192 184 235 227 220 214 209 214 214 215
337 332 349 12 357 330 230 58 208 234 273 6 339 295 196 159 232 189 153 180 202 128 135 163 219 205 193 183 178 172 153 155 175 208 222 79 221 248 233 230 227 223 218 208 211
336 335 13 2 349 341 173 174 210 260 7 334 324 29 327 347 4 151 181 193 190 182 155 154 237 251 181 169 160 196 156 183 136 31 74 221 284 311 249 268 225 220 208 203 211
340 337 21 352 336 164 70 246 260 331 359 354 16 1 325 325 17 155 176 188 192 181 156 192 191 210 175 141 211 163 170 99 348 170 206 269 258 229 283 247 240 227 195 202 216
347 336 350 347 21 173 173 240 294 343 359 350 325 302 301 292 353 313 261 255 171 194 161 147 125 262 185 191 177 133 161 62 125 140 171 205 262 207 232 247 231 217 204 203 212
352 335 341 351 76 14 18 312 300 302 323 255 257 227 241 278 294 292 260 11 351 223 197 192 160 215 198 206 181 173 176 158 139 216 186 169 256 198 225 255 223 216 208 211 214
330 291 358 6 48 347 313 294 286 2 317 312 298 281 283 288 293 234 273 7 12 23 197 169 196 189 291 300 154 178 170 124 113 106 189 153 251 285 286 8 263 199 217 222 219
328 339 341 24 74 359 344 314 326 330 282 339 256 315 286 258 211 272 343 320 337 13 351 257 150 211 220 218 147 160 161 168 151 153 174 221 240 272 276 266 240 225 241 228 222
307 281 6 306 328 311 338 308 328 336 320 330 334 344 309 263 306 178 328 312 307 3 1 95 208 188 210 183 158 181 170 169 181 186 182 229 196 222 248 281 288 306 261 233 225
299 331 332 291 300 326 329 3 298 330 279 310 350 329 14 59 355 314 360 295 273 330 2 342 271 149 228 212 197 213 211 181 199 182 194 233 244 192 222 236 264 267 266 220 218
322 298 296 279 309 328 352 323 309 306 299 303 319 314 316 307 313 280 260 262 243 295 307 17 67 135 228 183 116 258 222 179 170 172 162 203 235 178 202 205 231 220 234 222 220
Wind_Speed_850mb
37 38 37 37 39 40 41 42 42 41 40 38 37 37 39 43 41 45 54 42 35 19 15 24 22 18 18 14 20 6 4 6 6 15 14 33 12 28 4 35 12 7 33 73 70
36 37 38 39 40 40 40 41 42 45 43 41 38 38 39 44 48 51 36 32 33 35 29 26 20 18 13 12 14 12 6 11 11 14 26 35 39 36 18 29 8 24 51 74 69
40 41 41 41 42 42 42 41 41 43 44 43 40 36 37 38 46 20 6 6 18 35 30 15 15 11 16 16 17 15 12 14 17 35 54 45 31 18 45 8 26 66 83 80 73
40 41 43 45 46 45 45 45 42 42 42 42 40 36 33 27 13 10 11 11 13 25 41 29 18 13 8 7 10 10 25 23 38 40 39 36 39 19 24 18 56 76 93 85 74
43 43 43 44 46 48 49 48 46 43 42 41 39 36 31 23 59 25 31 39 23 16 30 34 25 13 6 7 12 8 15 21 64 61 56 45 25 14 22 22 50 77 84 83 75
47 46 46 47 48 49 50 50 48 45 42 43 38 35 30 21 41 26 32 43 36 22 24 32 12 13 9 8 4 12 20 17 48 47 53 31 18 17 21 46 64 74 68 78 78
52 52 52 52 53 52 52 51 49 47 43 39 37 35 42 72 27 7 9 11 25 25 25 20 22 14 1 8 16 13 8 9 6 20 11 51 5 8 47 59 68 61 60 64 71
59 57 56 57 56 56 54 52 47 46 39 37 35 33 34 46 36 58 60 54 33 29 30 21 19 17 10 14 17 10 9 9 7 12 27 11 10 20 57 65 58 60 59 61 70
61 62 62 60 59 58 56 44 40 32 23 23 22 21 29 24 41 42 58 51 38 31 29 23 10 14 16 10 10 11 9 7 8 18 18 4 6 40 55 56 58 60 62 63 73
65 65 64 64 62 58 51 41 15 13 4 5 16 9 31 14 7 15 25 51 42 33 37 24 18 8 7 8 11 9 8 9 14 18 10 8 10 35 58 56 59 61 62 64 70
70 68 68 64 60 56 39 17 15 6 20 21 13 22 19 10 23 8 17 53 46 17 13 14 10 15 23 17 12 11 5 8 10 16 12 14 16 41 60 52 51 56 60 66 69
67 71 71 67 60 42 21 13 25 25 34 44 56 69 77 63 22 15 23 34 20 14 10 2 17 18 15 17 9 5 4 7 6 9 7 10 6 31 49 63 69 66 64 70 75
67 69 70 70 57 19 34 11 34 36 14 33 58 50 66 53 34 47 29 37 13 17 14 16 10 18 13 11 13 7 10 7 9 7 8 13 5 18 33 37 54 62 75 73 84
65 68 68 70 37 42 17 30 29 26 8 15 13 20 37 37 20 81 44 40 7 30 15 14 23 17 15 13 12 10 16 7 5 7 8 14 11 15 30 37 33 59 67 70 87
71 70 65 59 66 49 37 24 19 7 10 7 11 4 29 45 26 49 71 37 20 13 16 16 17 23 11 20 15 18 10 16 10 10 3 4 1 14 28 31 43 56 71 76 84
68 69 67 67 68 37 40 29 7 6 17 11 11 7 12 26 7 21 43 43 29 13 7 20 8 19 21 8 20 8 5 14 9 9 4 24 18 12 15 49 48 50 69 76 85
66 66 70 51 47 34 26 17 6 10 14 8 10 12 9 11 11 14 32 27 21 15 27 4 22 6 10 11 7 12 14 2 4 2 12 11 5 21 18 25 46 46 77 84 88
68 63 54 50 53 26 7 6 10 9 15 12 15 17 15 13 14 5 28 26 9 13 11 15 11 22 12 18 17 15 19 12 11 8 8 12 14 32 36 30 48 61 79 79 76
74 62 22 47 46 21 9 5 13 5 11 22 20 12 12 12 7 7 16 40 42 20 16 16 14 5 15 11 26 11 11 18 10 4 5 8 14 19 16 23 28 55 51 68 82
78 66 10 47 38 8 7 9 8 4 17 12 10 11 9 15 11 3 16 14 30 20 14 14 8 11 9 11 10 18 17 8 4 14 10 9 9 13 18 18 18 22 49 67 86
61 29 25 47 4 9 6 12 12 6 29 14 8 10 9 8 11 10 8 7 20 31 18 14 9 6 15 15 20 8 7 8 11 10 13 6 15 16 18 20 21 30 58 68 84
36 8 38 43 8 5 3 15 23 31 26 14 11 16 14 11 8 6 8 9 25 10 34 17 13 13 14 7 16 16 20 16 11 9 3 10 23 12 17 19 22 34 55 78 86
41 17 24 26 8 9 16 12 9 17 9 9 10 18 20 11 9 11 9 6 38 20 19 19 8 7 9 12 3 10 11 11 10 8 16 14 17 7 12 9 13 31 47 56 77
17 7 15 13 6 8 13 10 15 29 10 21 11 18 15 15 15 13 15 10 32 17 22 5 12 43 23 9 12 11 12 13 16 9 11 15 12 9 13 10 10 24 49 66 74
6 5 6 8 9 11 10 10 18 15 12 24 14 22 15 8 3 6 7 12 11 25 15 5 29 18 30 16 12 14 12 19 17 16 18 21 19 19 19 19 28 34 28 66 76
7 8 13 22 23 10 4 2 14 15 8 10 17 35 11 8 9 10 8 3 8 15 14 14 5 13 23 30 17 15 16 19 15 8 10 12 18 19 44 44 32 42 38 58 73
11 15 7 15 10 4 3 10 12 35 18 21 16 10 12 12 28 44 41 32 18 4 6 9 5 9 39 10 11 13 36 15 10 9 17 16 30 15 15 19 28 16 25 37 61
Wind_Direction_850mb
338 335 328 319 314 307 305 305 304 302 300 302 303 302 302 300 296 290 280 289 284 267 211 216 196 193 199 227 234 244 10 260 262 152 139 150 130 156 167 143 144 127 156 159 157
338 333 330 325 321 317 311 306 301 297 296 296 297 299 300 303 303 290 296 273 251 236 227 206 195 186 197 218 204 177 186 243 229 150 152 165 152 156 130 158 100 115 148 155 159
339 335 332 327 323 319 314 310 306 302 295 291 291 294 297 304 311 287 135 19 243 224 207 194 180 211 223 215 204 199 213 213 164 166 155 153 147 146 145 196 182 150 153 162 165
341 336 333 329 325 320 315 311 307 303 299 290 287 287 289 292 273 181 186 45 47 200 193 203 208 198 213 230 235 268 239 216 173 166 150 160 151 141 174 210 188 172 162 164 171
342 337 333 329 324 320 315 310 306 301 296 290 285 281 279 260 249 246 271 276 286 236 205 203 196 190 206 237 302 229 266 175 156 159 169 155 158 144 225 165 166 159 164 169 172
341 336 332 328 324 320 314 309 304 300 292 287 280 273 262 244 277 279 246 244 251 231 224 216 174 216 255 250 262 289 331 146 157 162 164 144 144 129 150 155 155 160 168 173 177
339 335 332 330 326 322 315 309 306 297 287 280 273 264 250 246 254 226 209 224 228 233 239 252 238 206 306 303 319 324 66 72 12 142 128 118 94 169 158 157 161 171 177 182 188
338 334 332 330 329 324 316 316 308 294 281 271 265 257 253 267 253 248 248 261 255 231 236 252 260 216 194 306 330 40 49 128 212 151 161 130 189 155 163 158 170 177 187 194 197
338 335 332 330 330 325 322 323 313 307 284 256 246 235 268 250 243 245 235 233 225 219 232 242 223 187 148 118 1 22 156 186 177 225 155 75 140 167 171 171 175 186 192 196 205
339 336 334 331 332 328 330 330 328 354 24 227 208 259 244 243 234 283 230 219 213 217 235 242 212 137 95 112 186 194 213 208 180 199 187 161 168 168 178 180 186 191 196 201 207
339 336 334 332 334 333 340 357 346 297 297 240 232 244 270 295 238 237 244 188 202 202 160 199 156 194 186 171 163 146 130 222 210 203 143 191 154 178 184 189 193 201 200 205 208
340 337 335 330 333 333 357 34 18 331 295 282 269 257 253 258 299 249 196 163 167 184 157 64 212 213 117 151 162 181 167 258 288 148 120 165 218 186 186 198 195 198 203 206 212
342 338 335 328 332 338 338 19 339 332 252 283 254 246 241 232 223 246 189 188 149 171 177 199 237 149 160 156 162 204 180 207 155 84 63 113 10 185 210 213 212 213 208 209 212
341 338 339 329 331 329 341 318 324 323 299 269 227 244 196 192 233 230 214 194 167 196 142 214 236 189 145 187 141 190 208 144 168 111 212 169 241 221 200 215 213 214 212 210 218
339 338 336 332 314 322 316 318 310 310 313 199 188 296 177 170 143 203 204 192 180 161 139 224 198 190 169 203 157 222 139 179 161 202 113 283 58 264 188 215 219 215 214 213 218
337 336 333 326 315 325 313 312 303 48 244 308 133 143 125 228 261 127 172 203 204 165 133 210 209 164 209 153 184 88 83 49 66 116 175 232 193 250 183 215 222 219 216 216 215
336 335 342 343 341 309 305 310 71 198 323 341 358 29 278 204 244 160 168 175 173 150 201 171 231 218 153 168 203 110 87 307 341 108 214 192 184 235 227 220 214 209 214 214 215
337 332 349 12 357 330 230 58 208 234 273 6 339 295 196 159 232 189 153 180 202 128 135 163 219 205 193 183 178 172 153 155 175 208 222 79 221 248 233 230 227 223 218 208 211
336 335 13 2 349 341 173 174 210 260 7 334 324 29 327 347 4 151 181 193 190 182 155 154 237 251 181 169 160 196 156 183 136 31 74 221 284 311 249 268 225 220 208 203 211
340 337 21 352 336 164 70 246 260 331 359 354 16 1 325 325 17 155 176 188 192 181 156 192 191 210 175 141 211 163 170 99 348 170 206 269 258 229 283 247 240 227 195 202 216
347 336 350 347 21 173 173 240 294 343 359 350 325 302 301 292 353 313 261 255 171 194 161 147 125 262 185 191 177 133 161 62 125 140 171 205 262 207 232 247 231 217 204 203 212
352 335 341 351 76 14 18 312 300 302 323 255 257 227 241 278 294 292 260 11 351 223 197 192 160 215 198 206 181 173 176 158 139 216 186 169 256 198 225 255 223 216 208 211 214
330 291 358 6 48 347 313 294 286 2 317 312 298 281 283 288 293 234 273 7 12 23 197 169 196 189 291 300 154 178 170 124 113 106 189 153 251 285 286 8 263 199 217 222 219
328 339 341 24 74 359 344 314 326 330 282 339 256 315 286 258 211 272 343 320 337 13 351 257 150 211 220 218 147 160 161 168 151 153 174 221 240 272 276 266 240 225 241 228 222
307 281 6 306 328 311 338 308 328 336 320 330 334 344 309 263 306 178 328 312 307 3 1 95 208 188 210 183 158 181 170 169 181 186 182 229 196 222 248 281 288 306 261 233 225
299 331 332 291 300 326 329 3 298 330 279 310 350 329 14 59 355 314 360 295 273 330 2 342 271 149 228 212 197 213 211 181 199 182 194 233 244 192 222 236 264 267 266 220 218
322 298 296 279 309 328 352 323 309 306 299 303 319 314 316 307 313 280 260 262 243 295 307 17 67 135 228 183 116 258 222 179 170 172 162 203 235 178 202 205 231 220 234 222 220